Weather History for Granbury, TX

Change the Weather History Date:

Monday, July 8, 2013

  Actual Average (KSEP) Record (KSEP)
Temperature  
Mean Temperature 88 °F -  
Max Temperature 98 °F 93 °F 104 °F (1956)
Min Temperature 78 °F 69 °F 60 °F (1941)
Cooling Degree Days 23    
Growing Degree Days 38 (Base 50)    
Moisture  
Dew Point 67 °F    
Average Humidity 52    
Maximum Humidity 79    
Minimum Humidity 30    
Precipitation  
Precipitation 0.00 in - - ()
Sea Level Pressure  
Sea Level Pressure 30.04 in    
Wind  
Wind Speed 8 mph (SE)    
Max Wind Speed 18 mph    
Max Gust Speed 24 mph    
Visibility 10 miles    
Events      
Averages and records for this station are not official NWS values.
T = Trace of Precipitation, MM = Missing Value Source: NWS Daily Summary

Daily Weather History Graph

Daily Weather History Graph

Search for Another Location

Airport:

Trip Planner

Search our weather history database for the weather conditions in past years. The results will help you decide how hot, cold, wet, or windy it might be!

Date:

Astronomy

Jul. 08, 2013 Rise Set
Actual Time 6:31 AM CDT 8:41 PM CDT
Civil Twilight 6:02 AM CDT 9:09 PM CDT
Nautical Twilight 5:28 AM CDT 9:43 PM CDT
Astronomical Twilight 4:51 AM CDT 10:20 PM CDT
Moon 6:56 AM CDT (7/8) 8:51 PM CDT (7/8)
Length of Visible Light 15h 06m
Length of Day
14h 10m
New Moon, 0% of the Moon is Illuminated
Jul 8
New Moon
Jul 15
First Quarter
Jul 22
Full
Jul 29
Last Quarter
Aug 6
New

Hourly Weather History & Observations

Time (CDT) Temp. Heat Index Dew Point Humidity Pressure Visibility Wind Dir Wind Speed Gust Speed Precip Events Conditions
12:15 AM 87.1 °F 90.6 °F 68.0 °F 53% 29.99 in 10.0 mi SE 12.7 mph 17.3 mph N/A   Clear
12:35 AM 86.7 °F 89.9 °F 67.8 °F 53% 29.99 in 10.0 mi ESE 9.2 mph 17.3 mph N/A   Clear
12:55 AM 86.2 °F 89.4 °F 67.6 °F 54% 29.99 in 10.0 mi SE 9.2 mph - N/A   Clear
1:15 AM 85.6 °F 88.8 °F 67.6 °F 55% 29.99 in 10.0 mi SE 5.8 mph - N/A   Clear
1:35 AM 84.9 °F 87.9 °F 67.6 °F 56% 30.00 in 10.0 mi SE 3.5 mph - N/A   Clear
1:55 AM 84.4 °F 87.3 °F 67.6 °F 57% 30.00 in 10.0 mi ESE 4.6 mph - N/A   Clear
2:15 AM 83.7 °F 86.7 °F 68.0 °F 59% 30.01 in 10.0 mi ESE 4.6 mph - N/A   Clear
2:35 AM 83.7 °F 87.2 °F 68.7 °F 61% 30.01 in 10.0 mi SE 4.6 mph - N/A   Clear
2:55 AM 82.8 °F 86.2 °F 68.9 °F 63% 30.01 in 10.0 mi ESE 4.6 mph - N/A   Clear
3:15 AM 82.4 °F 85.8 °F 69.1 °F 64% 30.01 in 10.0 mi SE 5.8 mph - N/A   Clear
3:35 AM 82.0 °F 85.5 °F 69.3 °F 65% 30.01 in 10.0 mi SE 5.8 mph - N/A   Clear
3:55 AM 81.5 °F 84.9 °F 69.4 °F 67% 30.02 in 10.0 mi SE 5.8 mph - N/A   Clear
4:15 AM 81.0 °F 84.4 °F 69.8 °F 69% 30.02 in 10.0 mi SE 6.9 mph - N/A   Clear
4:35 AM 80.6 °F 83.9 °F 69.8 °F 70% 30.02 in 10.0 mi SE 6.9 mph - N/A   Clear
4:55 AM 80.2 °F 83.5 °F 70.2 °F 71% 30.03 in 10.0 mi SE 6.9 mph - N/A   Clear
5:15 AM 79.7 °F - 70.3 °F 73% 30.04 in 10.0 mi SE 5.8 mph - N/A   Clear
5:55 AM 79.0 °F - 70.9 °F 76% 30.05 in 10.0 mi SE 6.9 mph - N/A   Clear
6:15 AM 78.8 °F - 71.1 °F 77% 30.05 in 10.0 mi SE 6.9 mph - N/A   Clear
6:35 AM 78.4 °F - 71.2 °F 78% 30.05 in 10.0 mi SE 6.9 mph - N/A   Clear
6:55 AM 78.3 °F - 71.2 °F 79% 30.06 in 10.0 mi SE 6.9 mph - N/A   Clear
7:15 AM 78.8 °F - 71.6 °F 78% 30.07 in 10.0 mi SE 6.9 mph - N/A   Clear
7:35 AM 79.3 °F - 71.8 °F 78% 30.08 in 10.0 mi SE 5.8 mph - N/A   Clear
7:55 AM 80.8 °F 85.1 °F 72.1 °F 75% 30.08 in 10.0 mi SE 8.1 mph - N/A   Clear
8:15 AM 81.5 °F 86.1 °F 72.0 °F 73% 30.09 in 10.0 mi SSE 9.2 mph - N/A   Scattered Clouds
8:35 AM 82.6 °F 87.6 °F 72.0 °F 70% 30.10 in 10.0 mi SSE 8.1 mph - N/A   Scattered Clouds
8:55 AM 84.0 °F 89.6 °F 72.0 °F 67% 30.10 in 10.0 mi SSE 9.2 mph - N/A   Scattered Clouds
9:15 AM 84.2 °F 89.6 °F 71.8 °F 66% 30.10 in 10.0 mi SSE 8.1 mph - N/A   Mostly Cloudy
9:35 AM 85.5 °F 91.1 °F 71.6 °F 63% 30.10 in 10.0 mi SSE 10.4 mph - N/A   Mostly Cloudy
9:55 AM 85.3 °F 90.4 °F 71.1 °F 62% 30.10 in 10.0 mi SSE 4.6 mph - N/A   Mostly Cloudy
10:15 AM 86.7 °F 92.1 °F 71.1 °F 59% 30.10 in 10.0 mi SSE 5.8 mph - N/A   Mostly Cloudy
10:35 AM 87.4 °F 92.7 °F 70.7 °F 57% 30.09 in 10.0 mi South 6.9 mph - N/A   Scattered Clouds
10:55 AM 88.3 °F 93.2 °F 69.8 °F 54% 30.09 in 10.0 mi South 8.1 mph - N/A   Scattered Clouds
11:15 AM 90.0 °F 94.5 °F 69.1 °F 50% 30.09 in 10.0 mi SE 8.1 mph - N/A   Scattered Clouds
11:35 AM 91.2 °F 95.5 °F 68.7 °F 47% 30.09 in 10.0 mi SE 9.2 mph - N/A   Scattered Clouds
11:55 AM 91.9 °F 96.4 °F 68.4 °F 46% 30.09 in 10.0 mi SSE 5.8 mph - N/A   Mostly Cloudy
12:15 PM 90.9 °F 94.0 °F 67.1 °F 45% 30.08 in 10.0 mi SE 11.5 mph - N/A   Mostly Cloudy
12:35 PM 92.5 °F 95.4 °F 66.4 °F 42% 30.08 in 10.0 mi SE 5.8 mph 16.1 mph N/A   Scattered Clouds
12:55 PM 94.8 °F 97.1 °F 65.1 °F 37% 30.07 in 10.0 mi South 8.1 mph - N/A   Clear
1:15 PM 95.2 °F 98.3 °F 65.7 °F 38% 30.07 in 10.0 mi SE 12.7 mph 16.1 mph N/A   Scattered Clouds
1:35 PM 94.6 °F 97.3 °F 65.5 °F 38% 30.06 in 10.0 mi South 10.4 mph - N/A   Scattered Clouds
1:55 PM 96.3 °F 99.1 °F 65.3 °F 36% 30.06 in 10.0 mi SE 9.2 mph 18.4 mph N/A   Scattered Clouds
2:15 PM 96.1 °F 98.3 °F 64.6 °F 35% 30.05 in 10.0 mi East 10.4 mph - N/A   Clear
2:35 PM 96.6 °F 98.7 °F 64.4 °F 34% 30.04 in 10.0 mi ESE 12.7 mph 16.1 mph N/A   Scattered Clouds
2:55 PM 96.8 °F 98.5 °F 63.7 °F 33% 30.04 in 10.0 mi SE 6.9 mph 16.1 mph N/A   Scattered Clouds
3:15 PM 96.8 °F 98.5 °F 63.7 °F 33% 30.03 in 10.0 mi ESE 10.4 mph - N/A   Mostly Cloudy
3:35 PM 95.2 °F 96.3 °F 62.8 °F 34% 30.03 in 10.0 mi SE 3.5 mph - N/A   Mostly Cloudy
3:55 PM 95.9 °F 97.5 °F 63.3 °F 34% 30.02 in 10.0 mi ESE 8.1 mph - N/A   Mostly Cloudy
4:15 PM 95.9 °F 97.0 °F 62.8 °F 33% 30.02 in 10.0 mi SE 9.2 mph - N/A   Overcast
4:35 PM 97.9 °F 98.8 °F 61.9 °F 30% 30.02 in 10.0 mi SE 6.9 mph - N/A   Scattered Clouds
4:55 PM 98.4 °F 99.7 °F 62.4 °F 30% 30.01 in 10.0 mi SSE 4.6 mph - N/A   Scattered Clouds
5:15 PM 95.2 °F 97.8 °F 65.5 °F 37% 30.01 in 10.0 mi ESE 13.8 mph - N/A   Scattered Clouds
5:35 PM 95.7 °F 98.2 °F 64.8 °F 36% 30.00 in 10.0 mi ESE 12.7 mph 20.7 mph N/A   Scattered Clouds
5:55 PM 95.9 °F 99.0 °F 66.0 °F 37% 29.99 in 10.0 mi SE 16.1 mph 23.0 mph N/A   Mostly Cloudy
6:15 PM 95.7 °F 99.2 °F 66.2 °F 38% 29.99 in 10.0 mi ESE 18.4 mph 24.2 mph N/A   Mostly Cloudy
6:35 PM 94.1 °F 97.3 °F 66.2 °F 40% 30.00 in 10.0 mi SSE 16.1 mph - N/A   Scattered Clouds
6:55 PM 93.9 °F 97.0 °F 66.6 °F 40% 30.00 in 10.0 mi SSE 16.1 mph 23.0 mph N/A   Clear
7:15 PM 93.0 °F 96.4 °F 67.1 °F 42% 30.00 in 10.0 mi South 12.7 mph 20.7 mph N/A   Scattered Clouds
7:35 PM 92.5 °F 95.4 °F 66.4 °F 42% 30.01 in 10.0 mi South 12.7 mph 18.4 mph N/A   Clear
7:55 PM 92.3 °F 94.7 °F 65.7 °F 41% 30.01 in 10.0 mi SSE 10.4 mph - N/A   Clear
8:15 PM 91.8 °F 93.8 °F 64.8 °F 41% 30.01 in 10.0 mi SSE 12.7 mph - N/A   Clear
8:35 PM 90.7 °F 92.1 °F 63.7 °F 41% 30.02 in 10.0 mi South 9.2 mph - N/A   Clear
8:55 PM 89.8 °F 91.0 °F 63.9 °F 42% 30.02 in 10.0 mi SSE 10.4 mph - N/A   Clear
9:15 PM 89.1 °F 90.6 °F 64.4 °F 44% 30.03 in 10.0 mi SSE 10.4 mph - N/A   Clear
9:35 PM 88.3 °F 90.2 °F 65.3 °F 46% 30.04 in 10.0 mi SSE 11.5 mph - N/A   Clear
9:55 PM 87.8 °F 89.7 °F 65.3 °F 47% 30.05 in 10.0 mi SSE 8.1 mph - N/A   Clear
10:15 PM 86.9 °F 88.9 °F 65.5 °F 49% 30.07 in 10.0 mi South 9.2 mph - N/A   Clear
10:35 PM 86.2 °F 88.4 °F 65.8 °F 51% 30.08 in 10.0 mi South 6.9 mph - N/A   Clear
10:55 PM 85.6 °F 87.4 °F 64.9 °F 50% 30.09 in 10.0 mi South 8.1 mph - N/A   Clear
11:15 PM 85.5 °F 86.1 °F 62.6 °F 46% 30.10 in 10.0 mi South 8.1 mph - N/A   Clear
11:35 PM 84.7 °F 85.2 °F 61.7 °F 46% 30.10 in 10.0 mi SSE 6.9 mph - N/A   Clear
11:55 PM 84.2 °F 84.8 °F 61.7 °F 47% 30.10 in 10.0 mi South 6.9 mph - N/A   Clear